sat.trackr.live / text

‹ back to catalog

STARLINK-1407

NORAD 45703 · 2020-035AY

PAYLOAD ACTIVE UNKNOWN

§ Identity

Operator
Country
US
Launch date
2020-06-04
Launch site
AFETR
Launch vehicle
Mass (kg)
RCS (m²)

Purposes: comms

External: N2YO · Heavens-Above · Gunter

§ Orbital elements

Epoch: 2026-09-17T17:22:02.345664Z

Period
89.98 min
Inclination
53.0165°
Eccentricity
0.0003240
Mean motion
16.00410743 rev/d
Perigee alt
271.1 km
Apogee alt
275.4 km
Semi-major
6,651.4 km
B*
5.6741e-4
RAAN
76.5968°
Arg perigee
299.5265°
Mean anomaly
60.5441°
Rev number
35,058

§ Raw data

STARLINK-14071 45703U 20035AY  26260.72363826  .00302259  49747-4  56741-3 0  99942 45703  53.0165  76.5968 0003240 299.5265  60.5441 16.00410743350586

JSON: /api/v1/satellites/45703 · /tle

For live sub-satellite position, see the globe view (requires WebGL).

§ Visibility from observer

Set your observer location to see the next 7 days of passes ≥ 10°. The values pass through the URL so the page stays shareable.

No JS? Fill the form by hand. The geolocation button needs JavaScript.